Погода в Елани-Коленовском

Россия / Воронежская область     51°10′19″N   41°09′05″E
темп.,
°C
ветер,
м/с
пор.,
м/с
влажн.,
%
обл.,
%
осадки,
мм/ч
давл.,
гПа
погр.,
м
12 апреля, пн
пн1200:00+7св4994100 0.0 1026250
03:00+6св51097100 0.0 1026209
06:00+6св41095100 0.0 1027219
09:00+13в587364 0.0 1026332
12:00+20вюв793881 0.0 1025908
15:00+22вюв71032100 0.0 10251627
18:00+19вюв6124231 0.0 1025392
21:00+13вюв4115867 0.0 1027181
13 апреля, вт
вт1300:00+11в4116727 0.0 1027179
03:00+9вюв4116646 0.0 1027197
06:00+8вюв410665 0.0 1027168
09:00+15вюв59475 0.0 1027376
12:00+20вюв7103139 0.0 10261269
15:00+21юв810275 0.0 10252007
18:00+18вюв611360 0.0 1024378
21:00+13в4115220 0.0 1025191
14 апреля, ср
ср1400:00+11в41160100 0.0 1024202
03:00+10в41165100 0.0 1023229
06:00+8в410722 0.0 1023194
09:00+14вюв58486 0.0 1023442
12:00+19вюв693230 0.0 10211339
15:00+20юв6827100 0.0 10192032
18:00+18вюв5938100 0.0 1019263
21:00+13вюв4751100 0.0 1019112
15 апреля, чт
чт1500:00+12вюв386289 0.0 1018132
03:00+10вюв3668100 0.0 1018100
06:00+9вюв367186 0.0 1017111
09:00+15вюв5851100 0.0 1017408
12:00+19вюв5637100 0.0 10151122
15:00+20юв5629100 0.0 10141985
18:00+18юв3640100 0.0 1014140
21:00+15юв3346100 0.0 101347
16 апреля, пт
пт1600:00+14юв2252100 0.0 101314
03:00+13с225418 0.0 101227
06:00+11св33736 0.0 101155
09:00+15зюз235659 0.0 1011499
12:00+19юз4443100 0.1 10111962
15:00+18юз5550100 0.3 10111394
18:00+16юз45567 0.0 1011788
21:00+12зюз33717 0.0 101155